Location: Peterborough
(44.3091°N, 78.3197°W)
Time: 04:55:43
(UTC-04:00)

Vanguard 3 - Pass Details

Date: 29 February 2024
Orbit: 510 x 3236 km, 33.3° (Epoch: 12 April)

Event Time Altitude Azimuth Distance (km) Brightness Sun altitude
Rises 17:31:25 0° 203° (SSW) 5,854 12.1 4.3°
Reaches altitude 10° 17:35:40 10° 193° (SSW) 5,208 11.7 3.6°
Maximum altitude 17:48:44 30° 140° (SE) 4,511 10.7 1.3°
Drops below altitude 10° 18:03:59 10° 90° (E) 6,139 11.0 -1.4°
Enters shadow 18:08:15 - 83° (E) 6,825 11.1 -2.1°
Sets 18:09:29 0° 81° (E) 7,032 - -2.4°
